TimeCDT,TemperatureF,Dew PointF,Humidity,Sea Level PressureIn,VisibilityMPH,Wind Direction,Wind SpeedMPH,Gust SpeedMPH,PrecipitationIn,Events,Conditions,WindDirDegrees,DateUTC
12:53 AM,78.1,75.9,93,30.07,10.0,ESE,6.9,-,N/A,,Scattered Clouds,110,2012-10-13 05:53:00
1:51 AM,77.0,73.4,89,30.07,10.0,ESE,13.8,24.2,N/A,,Mostly Cloudy,120,2012-10-13 06:51:00
1:53 AM,77.0,75.0,94,30.07,10.0,ESE,11.5,21.9,N/A,,Mostly Cloudy,110,2012-10-13 06:53:00
2:02 AM,75.2,75.2,100,30.07,10.0,ESE,10.4,-,0.00,Rain,Light Rain,120,2012-10-13 07:02:00
2:15 AM,75.2,73.4,94,30.06,10.0,East,9.2,-,0.00,Rain,Light Rain,100,2012-10-13 07:15:00
2:53 AM,75.9,75.0,97,30.06,10.0,East,5.8,-,0.00,,Partly Cloudy,90,2012-10-13 07:53:00
3:53 AM,77.0,75.0,94,30.04,9.0,ESE,6.9,-,N/A,,Clear,110,2012-10-13 08:53:00
4:53 AM,77.0,75.9,96,30.04,10.0,East,3.5,-,0.10,,Mostly Cloudy,100,2012-10-13 09:53:00
5:15 AM,77.0,75.2,94,30.04,9.0,South,3.5,-,0.01,Rain,Light Rain,190,2012-10-13 10:15:00
5:33 AM,77.0,75.2,94,30.04,9.0,South,5.8,-,0.01,,Overcast,180,2012-10-13 10:33:00
5:53 AM,77.0,75.0,94,30.04,10.0,SSW,5.8,-,0.01,Rain,Light Rain,200,2012-10-13 10:53:00
6:46 AM,78.8,75.2,89,30.04,10.0,South,9.2,-,0.00,,Overcast,170,2012-10-13 11:46:00
6:53 AM,78.1,75.0,90,30.04,10.0,South,9.2,-,0.00,,Overcast,180,2012-10-13 11:53:00
7:08 AM,77.0,75.2,94,30.05,10.0,South,3.5,-,N/A,,Overcast,190,2012-10-13 12:08:00
7:53 AM,75.9,73.9,94,30.04,10.0,SSE,4.6,-,N/A,,Clear,150,2012-10-13 12:53:00
8:53 AM,80.1,77.0,90,30.04,8.0,SE,9.2,-,N/A,,Clear,140,2012-10-13 13:53:00
9:53 AM,84.0,77.0,79,30.05,10.0,SSE,16.1,-,N/A,,Clear,150,2012-10-13 14:53:00
10:49 AM,84.2,75.2,74,30.06,10.0,South,15.0,25.3,0.00,Rain,Light Rain,170,2012-10-13 15:49:00
10:53 AM,82.9,75.9,79,30.06,10.0,South,15.0,23.0,0.00,Rain,Light Rain,170,2012-10-13 15:53:00
11:24 AM,87.8,77.0,70,30.06,10.0,SSE,15.0,24.2,0.00,,Mostly Cloudy,150,2012-10-13 16:24:00
11:53 AM,88.0,75.9,67,30.04,10.0,SSE,20.7,28.8,0.00,,Mostly Cloudy,160,2012-10-13 16:53:00
12:53 PM,84.9,75.0,72,30.03,7.0,South,24.2,29.9,N/A,,Overcast,170,2012-10-13 17:53:00
1:53 PM,86.0,73.9,67,29.99,10.0,SSE,21.9,31.1,0.00,,Mostly Cloudy,150,2012-10-13 18:53:00
2:53 PM,88.0,72.0,59,29.96,10.0,SSE,26.5,35.7,N/A,,Mostly Cloudy,160,2012-10-13 19:53:00
3:53 PM,88.0,72.0,59,29.95,10.0,SSE,23.0,31.1,N/A,,Clear,150,2012-10-13 20:53:00
4:53 PM,88.0,72.0,59,29.94,10.0,SSE,21.9,29.9,N/A,,Clear,150,2012-10-13 21:53:00
5:53 PM,86.0,72.0,63,29.93,10.0,SSE,19.6,31.1,N/A,,Partly Cloudy,160,2012-10-13 22:53:00
6:53 PM,82.9,73.0,72,29.93,10.0,SSE,17.3,28.8,N/A,,Partly Cloudy,150,2012-10-13 23:53:00
7:53 PM,81.0,73.0,77,29.93,10.0,SSE,17.3,-,N/A,,Clear,150,2012-10-14 00:53:00
8:53 PM,81.0,73.0,77,29.95,10.0,SSE,15.0,-,N/A,,Clear,150,2012-10-14 01:53:00
9:53 PM,80.1,73.0,79,29.96,10.0,SSE,12.7,-,N/A,,Partly Cloudy,150,2012-10-14 02:53:00
10:53 PM,80.1,72.0,76,29.98,10.0,SSE,11.5,-,N/A,,Clear,150,2012-10-14 03:53:00